GSAT0206 (GALILEO 10)

Last updated on Jan. 14, 2021, 6:41 a.m. UTC

1 40890U 15045B   21012.97322195 -.00000005  00000-0  00000-0 0  9996
2 40890  55.9897 276.3264 0004055   0.4010 359.6712  1.70474588 33266
UTC
Height (km)
Latitude
Longitude
Inclination
Orbital Period
UTC large
Height (km)
Speed (km/s)
/
Latitude / Longitude
Inclination (degrees)
Orbital Period (minutes)
Azimuth
Elevation
Range (km)
Doppler Factor
iOS Compass Heading
iOS Angle

Next 30 passes for location: Hong Kong

Rise time Rise Azimuth (degrees) Set time Set Azimuth (degrees) Duration Max altitude (degrees)

No matching passes for this satellites